Location: Unspecified
(41.5516°N, 88.1098°W)
Time: 01:22:13

Cosmos 1674 - Visible Passes

Search period start: 28 October 2016 00:00
Search period end: 06 November 2016 23:00
Orbit: 501 x 524 km, 82.5° (Epoch: 27 October)

Date Brightness Start Highest point End Pass type
(mag) Time Alt. Az. Time Alt. Az. Time Alt. Az.
28 Oct 2.6 05:34:27 58° SW 05:35:00 67° W 05:38:52 10° N visible
29 Oct 3.7 05:20:23 36° N 05:20:23 36° N 05:22:47 10° N visible
30 Oct 5.0 05:05:44 17° NNE 05:05:44 17° NNE 05:06:39 10° NNE visible
